• en France
  • Liste des pays
  • À 7 jours
  • Température de l'eau
  • Carte satellitaire
  • Carte météo
  • Widgets météo
  • user-avatar
    Se connecter

    Météo par heure à Kazmaaul

    Ce jour, 20 Octobre, Samedi

    Heure Température Précipitation Vent Pression Humidité
    00:00 +16°C° 0 mm 5 m/s 763 mmHg 85%
    01:00 +17°C° 0 mm 4 m/s 763 mmHg 84%
    02:00 +17°C° 0 mm 4 m/s 763 mmHg 84%
    03:00 +15°C° 0 mm 4 m/s 763 mmHg 84%
    04:00 +16°C° 0 mm 3 m/s 763 mmHg 83%
    05:00 +16°C° 0 mm 3 m/s 763 mmHg 82%
    06:00 +16°C° 0 mm 3 m/s 763 mmHg 82%
    07:00 +18°C° 0 mm 3 m/s 762 mmHg 75%
    08:00 +19°C° 0 mm 3 m/s 762 mmHg 68%
    09:00 +21°C° 0 mm 3 m/s 762 mmHg 60%
    10:00 +22°C° 0 mm 3 m/s 762 mmHg 56%
    11:00 +24°C° 0 mm 3 m/s 762 mmHg 51%
    12:00 +26°C° 0 mm 3 m/s 762 mmHg 47%
    13:00 +25°C° 0 mm 3 m/s 761 mmHg 48%
    14:00 +25°C° 0 mm 3 m/s 761 mmHg 49%
    15:00 +25°C° 0 mm 4 m/s 761 mmHg 50%
    16:00 +24°C° 0 mm 3 m/s 761 mmHg 59%
    17:00 +21°C° 0 mm 3 m/s 761 mmHg 68%
    18:00 +19°C° 0 mm 3 m/s 761 mmHg 77%
    19:00 +18°C° 0 mm 3 m/s 762 mmHg 78%
    20:00 +18°C° 0 mm 2 m/s 762 mmHg 79%
    21:00 +17°C° 0 mm 2 m/s 762 mmHg 81%
    22:00 +17°C° 0 mm 2 m/s 761 mmHg 80%
    23:00 +18°C° 0 mm 1 m/s 761 mmHg 79%

    Demain, 21 Octobre, Dimanche

    Heure Température Précipitation Vent Pression Humidité
    00:00 +18°C° 0 mm 1 m/s 761 mmHg 78%
    01:00 +16°C° 0 mm 1 m/s 761 mmHg 78%
    02:00 +16°C° 0 mm 1 m/s 761 mmHg 77%
    03:00 +16°C° 0 mm 1 m/s 761 mmHg 77%
    04:00 +16°C° 0 mm 1 m/s 761 mmHg 77%
    05:00 +15°C° 0 mm 1 m/s 761 mmHg 77%
    06:00 +14°C° 0 mm 0 m/s 761 mmHg 77%
    07:00 +18°C° 0 mm 1 m/s 761 mmHg 71%
    08:00 +20°C° 0 mm 1 m/s 761 mmHg 65%
    09:00 +22°C° 0 mm 1 m/s 761 mmHg 59%
    10:00 +23°C° 0 mm 1 m/s 761 mmHg 55%
    11:00 +24°C° 0 mm 2 m/s 761 mmHg 51%
    12:00 +25°C° 0 mm 2 m/s 761 mmHg 46%
    13:00 +25°C° 0 mm 3 m/s 761 mmHg 48%
    14:00 +25°C° 0 mm 3 m/s 761 mmHg 49%
    15:00 +25°C° 0 mm 4 m/s 761 mmHg 50%
    16:00 +22°C° 0 mm 3 m/s 761 mmHg 59%
    17:00 +21°C° 0 mm 3 m/s 761 mmHg 68%
    18:00 +19°C° 0 mm 3 m/s 761 mmHg 77%
    19:00 +19°C° 0 mm 3 m/s 761 mmHg 80%
    20:00 +18°C° 0 mm 3 m/s 762 mmHg 84%
    21:00 +17°C° 0 mm 2 m/s 762 mmHg 88%
    22:00 +17°C° 0 mm 2 m/s 762 mmHg 89%
    23:00 +17°C° 0 mm 2 m/s 762 mmHg 90%

    Après-demain, 22 Octobre, Lundi

    Heure Température Précipitation Vent Pression Humidité
    00:00 +17°C° 0 mm 2 m/s 761 mmHg 91%
    01:00 +16°C° 0 mm 2 m/s 761 mmHg 91%
    02:00 +16°C° 0 mm 2 m/s 761 mmHg 90%
    03:00 +16°C° 0 mm 2 m/s 761 mmHg 90%
    04:00 +16°C° 0 mm 2 m/s 761 mmHg 90%
    05:00 +16°C° 0 mm 2 m/s 761 mmHg 90%
    06:00 +16°C° 0 mm 1 m/s 761 mmHg 90%
    07:00 +18°C° 0 mm 1 m/s 762 mmHg 84%
    08:00 +19°C° 0 mm 2 m/s 762 mmHg 79%
    09:00 +20°C° 0 mm 2 m/s 762 mmHg 73%
    10:00 +21°C° 0 mm 2 m/s 762 mmHg 68%
    11:00 +23°C° 0 mm 2 m/s 762 mmHg 63%
    12:00 +24°C° 0 mm 2 m/s 762 mmHg 58%
    13:00 +24°C° 0 mm 2 m/s 762 mmHg 58%
    14:00 +24°C° 0 mm 2 m/s 762 mmHg 58%
    15:00 +24°C° 0 mm 2 m/s 762 mmHg 57%
    16:00 +23°C° 0 mm 2 m/s 763 mmHg 62%
    17:00 +21°C° 0 mm 2 m/s 763 mmHg 66%
    18:00 +20°C° 0 mm 2 m/s 763 mmHg 70%
    19:00 +20°C° 0 mm 1 m/s 763 mmHg 73%
    20:00 +19°C° 0 mm 1 m/s 764 mmHg 76%
    21:00 +19°C° 0 mm 1 m/s 764 mmHg 80%
    22:00 +18°C° 0 mm 1 m/s 763 mmHg 81%
    23:00 +18°C° 0 mm 1 m/s 763 mmHg 82%

    23 Octobre, Mardi

    Heure Température Précipitation Vent Pression Humidité
    00:00 +16°C° 0 mm 1 m/s 763 mmHg 83%
    01:00 +16°C° 0 mm 1 m/s 763 mmHg 84%
    02:00 +16°C° 0 mm 1 m/s 763 mmHg 84%
    03:00 +16°C° 0 mm 1 m/s 763 mmHg 84%
    04:00 +16°C° 0 mm 1 m/s 763 mmHg 84%
    05:00 +15°C° 0 mm 1 m/s 763 mmHg 83%
    06:00 +15°C° 0 mm 1 m/s 763 mmHg 83%
    07:00 +18°C° 0 mm 1 m/s 763 mmHg 75%
    08:00 +19°C° 0 mm 1 m/s 763 mmHg 68%
    09:00 +21°C° 0 mm 1 m/s 763 mmHg 60%
    10:00 +22°C° 0 mm 1 m/s 762 mmHg 55%
    11:00 +24°C° 0 mm 2 m/s 762 mmHg 49%
    12:00 +25°C° 0 mm 2 m/s 762 mmHg 44%
    13:00 +25°C° 0.1 mm 3 m/s 761 mmHg 44%
    14:00 +25°C° 0.1 mm 3 m/s 761 mmHg 44%
    15:00 +25°C° 0.1 mm 3 m/s 761 mmHg 44%
    16:00 +22°C° 0.1 mm 3 m/s 761 mmHg 48%
    17:00 +21°C° 0.1 mm 2 m/s 761 mmHg 52%
    18:00 +20°C° 0.1 mm 2 m/s 762 mmHg 56%
    19:00 +20°C° 0.1 mm 1 m/s 762 mmHg 59%
    20:00 +19°C° 0.1 mm 1 m/s 762 mmHg 61%
    21:00 +19°C° 0.1 mm 1 m/s 762 mmHg 64%
    22:00 +19°C° 0 mm 1 m/s 761 mmHg 65%
    23:00 +19°C° 0 mm 1 m/s 761 mmHg 66%

    24 Octobre, Mercredi

    Heure Température Précipitation Vent Pression Humidité
    00:00 +18°C° 0 mm 1 m/s 761 mmHg 67%
    01:00 +18°C° 0 mm 1 m/s 761 mmHg 68%
    02:00 +18°C° 0 mm 1 m/s 760 mmHg 69%
    03:00 +15°C° 0 mm 0 m/s 760 mmHg 70%
    04:00 +16°C° 0 mm 1 m/s 760 mmHg 70%
    05:00 +16°C° 0 mm 1 m/s 760 mmHg 71%
    06:00 +16°C° 0 mm 1 m/s 760 mmHg 71%
    07:00 +18°C° 0 mm 1 m/s 760 mmHg 64%
    08:00 +20°C° 0 mm 1 m/s 760 mmHg 58%
    09:00 +22°C° 0 mm 1 m/s 760 mmHg 51%
    10:00 +23°C° 0 mm 1 m/s 759 mmHg 47%
    11:00 +24°C° 0 mm 2 m/s 758 mmHg 43%
    12:00 +26°C° 0 mm 3 m/s 758 mmHg 39%
    13:00 +26°C° 0 mm 3 m/s 757 mmHg 39%
    14:00 +25°C° 0 mm 4 m/s 757 mmHg 40%
    15:00 +25°C° 0 mm 4 m/s 756 mmHg 40%
    16:00 +23°C° 0 mm 4 m/s 756 mmHg 46%
    17:00 +21°C° 0 mm 4 m/s 756 mmHg 52%
    18:00 +19°C° 0 mm 4 m/s 756 mmHg 58%
    19:00 +19°C° 0 mm 4 m/s 755 mmHg 59%
    20:00 +18°C° 0 mm 4 m/s 755 mmHg 60%
    21:00 +18°C° 0 mm 4 m/s 754 mmHg 61%
    22:00 +17°C° 0 mm 5 m/s 753 mmHg 61%
    23:00 +17°C° 0 mm 5 m/s 753 mmHg 61%

    25 Octobre, Jeudi

    Heure Température Précipitation Vent Pression Humidité
    00:00 +17°C° 0 mm 5 m/s 752 mmHg 61%
    01:00 +18°C° 0 mm 4 m/s 751 mmHg 62%
    02:00 +18°C° 0 mm 4 m/s 750 mmHg 63%
    03:00 +18°C° 0 mm 4 m/s 749 mmHg 65%
    04:00 +18°C° 0 mm 3 m/s 749 mmHg 68%
    05:00 +17°C° 0 mm 3 m/s 748 mmHg 71%
    06:00 +17°C° 0 mm 2 m/s 748 mmHg 74%
    07:00 +19°C° 0 mm 2 m/s 747 mmHg 66%
    08:00 +21°C° 0 mm 2 m/s 746 mmHg 58%
    09:00 +23°C° 0 mm 1 m/s 746 mmHg 50%
    10:00 +25°C° 0 mm 1 m/s 745 mmHg 44%
    11:00 +27°C° 0 mm 1 m/s 745 mmHg 38%
    12:00 +28°C° 0 mm 1 m/s 745 mmHg 32%
    13:00 +28°C° 0 mm 2 m/s 745 mmHg 33%
    14:00 +28°C° 0 mm 3 m/s 745 mmHg 34%
    15:00 +28°C° 0 mm 4 m/s 745 mmHg 34%
    16:00 +26°C° 0 mm 3 m/s 745 mmHg 41%
    17:00 +24°C° 0 mm 3 m/s 746 mmHg 48%
    18:00 +21°C° 0 mm 3 m/s 746 mmHg 55%
    19:00 +20°C° 0 mm 3 m/s 746 mmHg 57%
    20:00 +20°C° 0 mm 3 m/s 747 mmHg 58%
    21:00 +19°C° 0 mm 3 m/s 747 mmHg 60%
    22:00 +19°C° 0 mm 4 m/s 748 mmHg 62%
    23:00 +17°C° 0 mm 5 m/s 749 mmHg 65%
    Voir plus